Sidney, NE

9:26 PM MDT on August 27, 2016 (GMT -0600)
Sidney Municipal

Weather History for KSNY - June, 2013

Change the Weather History Date:

Tuesday, June 18, 2013

  Actual Average Record
Temperature  
Mean Temperature 71 °F 69 °F  
Max Temperature 89 °F 83 °F 105 °F (2012)
Min Temperature 52 °F 54 °F 38 °F (1975)
Degree Days  
Heating Degree Days 0 1  
Month to date heating degree days 37 49  
Since 1 June heating degree days 37 49  
Since 1 July heating degree days 6677 6211  
Cooling Degree Days 6 5  
Month to date cooling degree days 64 57  
Year to date cooling degree days 97 79  
Since 1 June cooling degree days 64 57  
Growing Degree Days 20 (Base 50)    
Moisture  
Dew Point 50 °F    
Average Humidity 54    
Maximum Humidity 83    
Minimum Humidity 24    
Precipitation  
Precipitation 0.06 in 0.10 in 1.28 in (1970)
Month to date precipitation 0.25 2.02  
Year to date precipitation 6.03 8.78  
Sea Level Pressure  
Sea Level Pressure 29.96 in    
Wind  
Wind Speed 12 mph (SE)    
Max Wind Speed 26 mph    
Max Gust Speed 33 mph    
Visibility 10 miles    
Events Rain , Thunderstorm    
T = Trace of Precipitation, MM = Missing Value Source: NWS Daily Summary

Daily Weather History Graph

Daily Weather History Graph

Search for Another Location

Airport or City:

Trip Planner

Search our weather history database for the weather conditions in past years. The results will help you decide how hot, cold, wet, or windy it might be!

Date:

Astronomy

Jun. 18, 2013 Rise Set
Actual Time 5:19 AM MDT 8:27 PM MDT
Civil Twilight 4:45 AM MDT 9:01 PM MDT
Nautical Twilight 4:02 AM MDT 9:44 PM MDT
Astronomical Twilight 3:10 AM MDT 10:35 PM MDT
Moon 3:12 PM MDT (6/18) 1:31 AM MDT (6/18)
Length of Visible Light 16h 15m
Length of Day
15h 08m
Waxing Gibbous, 71% of the Moon is Illuminated
Jun 18
Waxing Gibbous
Jun 23
Full
Jun 29
Last Quarter
Jul 8
New
Jul 15
First Quarter

Hourly Weather History & Observations

Time (MDT) Temp. Dew Point Humidity Pressure Visibility Wind Dir Wind Speed Gust Speed Precip Events Conditions
12:53 AM 59.0 °F 51.1 °F 75% 30.08 in 9.0 mi ENE 21.9 mph - 0.05 in Rain Light Rain
1:53 AM 57.0 °F 51.1 °F 81% 30.06 in 10.0 mi ESE 15.0 mph - 0.01 in Rain Light Rain
2:18 AM 57.2 °F 50.0 °F 77% 30.17 in 10.0 mi ESE 16.1 mph - 0.00 in Thunderstorm Partly Cloudy
2:33 AM 57.2 °F 48.2 °F 72% 30.16 in 10.0 mi ESE 15.0 mph - 0.00 in   Clear
2:53 AM 57.9 °F 48.0 °F 70% 30.02 in 10.0 mi ESE 12.7 mph - 0.00 in   Clear
3:53 AM 57.0 °F 48.0 °F 72% 30.01 in 10.0 mi SE 10.4 mph - N/A   Clear
4:53 AM 54.0 °F 48.0 °F 80% 30.02 in 10.0 mi SSE 6.9 mph - N/A   Clear
5:53 AM 53.1 °F 46.9 °F 80% 30.03 in 10.0 mi SSE 6.9 mph - N/A   Clear
6:53 AM 60.1 °F 51.1 °F 72% 30.01 in 10.0 mi South 3.5 mph - N/A   Clear
7:53 AM 66.0 °F 50.0 °F 56% 30.01 in 10.0 mi SSE 9.2 mph - N/A   Clear
8:53 AM 71.1 °F 51.1 °F 49% 30.01 in 10.0 mi SSE 10.4 mph - N/A   Clear
9:53 AM 73.9 °F 51.1 °F 45% 30.00 in 10.0 mi South 10.4 mph 19.6 mph N/A   Clear
10:53 AM 78.1 °F 53.1 °F 42% 29.98 in 10.0 mi SSE 11.5 mph 18.4 mph N/A   Clear
11:53 AM 81.0 °F 51.1 °F 35% 29.95 in 10.0 mi South 15.0 mph 20.7 mph N/A   Clear
12:53 PM 82.9 °F 52.0 °F 34% 29.93 in 10.0 mi SSE 16.1 mph 24.2 mph N/A   Clear
1:53 PM 86.0 °F 50.0 °F 29% 29.89 in 10.0 mi South 10.4 mph 21.9 mph N/A   Clear
2:53 PM 86.0 °F 46.9 °F 26% 29.87 in 10.0 mi SSE 12.7 mph 25.3 mph N/A   Clear
3:53 PM 88.0 °F 46.9 °F 24% 29.84 in 10.0 mi SE 16.1 mph 24.2 mph N/A   Partly Cloudy
4:53 PM 84.0 °F 46.9 °F 27% 29.84 in 10.0 mi SSE 19.6 mph 27.6 mph N/A   Scattered Clouds
5:53 PM 82.0 °F 46.9 °F 29% 29.82 in 10.0 mi SSE 24.2 mph 29.9 mph N/A   Clear
6:53 PM 78.1 °F 48.9 °F 36% 29.82 in 10.0 mi SE 12.7 mph - N/A   Clear
7:53 PM 73.9 °F 46.9 °F 38% 29.85 in 10.0 mi WSW 6.9 mph - N/A   Partly Cloudy
8:53 PM 71.1 °F 46.9 °F 42% 29.83 in 10.0 mi SE 9.2 mph - N/A   Clear
9:53 PM 72.0 °F 54.0 °F 53% 29.85 in 10.0 mi ESE 10.4 mph - N/A Thunderstorm Mostly Cloudy
10:42 PM 60.8 °F 53.6 °F 77% 30.07 in 10.0 mi NNW 20.7 mph 33.4 mph 0.00 in Rain , Thunderstorm Light Rain
10:53 PM 60.1 °F 54.0 °F 80% 29.94 in 10.0 mi North 15.0 mph 27.6 mph 0.00 in Thunderstorm Overcast
11:37 PM 60.8 °F 53.6 °F 77% 30.05 in 10.0 mi NNE 19.6 mph - N/A   Scattered Clouds
11:53 PM 60.1 °F 54.0 °F 80% 29.88 in 10.0 mi NE 12.7 mph - N/A   Scattered Clouds